sat.trackr.live / text

‹ back to catalog

2024-016C

NORAD 58822 · 2024-016C

PAYLOAD ACTIVE UNKNOWN

§ Identity

Operator
Country
PRC
Launch date
2024-01-23
Launch site
JSC
Launch vehicle
Mass (kg)
RCS (m²)

External: N2YO · Heavens-Above · Gunter

§ Orbital elements

Epoch: 2026-05-25T05:29:47.298624Z

Period
94.44 min
Inclination
97.4366°
Eccentricity
0.0008575
Mean motion
15.24808091 rev/d
Perigee alt
485.5 km
Apogee alt
497.3 km
Semi-major
6,869.5 km
B*
3.1060e-4
RAAN
225.9718°
Arg perigee
278.4316°
Mean anomaly
81.5949°
Rev number
12,963

§ Raw data

2024-016C1 58822U 24016C   26145.22901966  .00007643  00000+0  31060-3 0  99932 58822  97.4366 225.9718 0008575 278.4316  81.5949 15.24808091129637

JSON: /api/v1/satellites/58822 · /tle

For live sub-satellite position, see the globe view (requires WebGL).

§ Visibility from observer

Set your observer location to see the next 7 days of passes ≥ 10°. The values pass through the URL so the page stays shareable.

No JS? Fill the form by hand. The geolocation button needs JavaScript.